Regional Weather Roundup
Issued by NWS Upton, NY

Current Version | Previous Version | Text Only | Print | Product List | Glossary On
Versions: 1 2 3 4 5 6 7 8 9 10 11 12 13 14 15 16 17 18 19 20 21 22 23 24 25 26 27 28 29 30 31 32 33 34 35 36 37 38 39 40 41 42 43 44 45 46 47 48 49 50
000
ASUS41 KOKX 271418
RWROKX

REGIONAL WEATHER ROUNDUP
NATIONAL WEATHER SERVICE NEW YORK NY
1000 AM EDT MON JUL 27 2015

NOTE: "FAIR" INDICATES FEW OR NO CLOUDS BELOW 12,000 FEET WITH NO
SIGNIFICANT WEATHER AND/OR OBSTRUCTIONS TO VISIBILITY.

NYZ071-072-176-178-NJZ106-104-271500-
NEW YORK CITY METRO AREA


CITY           SKY/WX    TMP DP  RH WIND       PRES   REMARKS
CENTRAL PARK   CLOUDY    76  67  73 VRB3      30.06R
LAGUARDIA APRT CLOUDY    79  64  60 SW7       30.03R
KENNEDY INTL   PTSUNNY   79  66  64 W8        30.04R
NEWARK/LIBERTY PTSUNNY   79  67  66 SW6       30.03R
BRNX BOT. GARD   N/A     79  66  65 E2        30.04R
TETERBORO      CLOUDY    78  66  66 S3        30.02S
$$

NYZ177-179-078>081-271500-
LONG ISLAND NEW YORK

CITY           SKY/WX    TMP DP  RH WIND       PRES   REMARKS
FARMINGDALE    CLOUDY    78  66  66 S3        30.03F
ISLIP          CLOUDY    80  66  62 CALM      30.02S
SHIRLEY        CLOUDY    78  68  71 SW5       30.04S
WESTHAMPTON    CLOUDY    77  73  87 CALM      30.05S
MONTAUK POINT    N/A     77  71  82 SW5       30.06R
$$

NYZ052-065-067-271500-
HUDSON VALLEY

CITY           SKY/WX    TMP DP  RH WIND       PRES   REMARKS
WHITE PLAINS   PTSUNNY   73  69  87 E3        30.04S
NEWBURGH       MOSUNNY   77  68  73 W7        30.05S
MONTGOMERY     MOSUNNY   77  68  73 SW8       30.03S
POUGHKEEPSIE   MOSUNNY   78  68  71 VRB3      30.02S
ALBANY         PTSUNNY   76  66  71 S3        30.02S
$$

NJZ001-105-106-008-010-013-015-019>022-104-271500-
NEW JERSEY

CITY           SKY/WX    TMP DP  RH WIND       PRES   REMARKS
NEWARK/LIBERTY PTSUNNY   79  67  66 SW6       30.03R
TETERBORO      CLOUDY    78  66  66 S3        30.02S
CALDWELL       CLOUDY    74  68  81 VRB5      30.04R
MORRISTOWN     CLOUDY    79  72  78 NE3       30.05R
SOMERVILLE     MOSUNNY   77  68  73 CALM      30.02S
SUSSEX         CLOUDY    75  67  76 VRB3      30.04S
ANDOVER          N/A     72  69  90 CALM      30.06R
TRENTON        MOSUNNY   77  70  79 SW3       30.03S
MILLVILLE      CLOUDY    77  70  79 VRB3      30.04R
ATLANTIC CITY  PTSUNNY   75  70  84 S5        30.04R
WRIGHTSTOWN    PTSUNNY   77  72  83 SW5       30.01F
TOMS RIVER     PTSUNNY   75  70  83 CALM      30.04F
BELMAR         CLOUDY    75  66  73 W5        30.04S
$$

PAZ047>061-062-071-271500-
EASTERN PENNSYLVANIA

CITY           SKY/WX    TMP DP  RH WIND       PRES   REMARKS
PHILADELPHIA   CLOUDY    77  69  76 S3        30.04R
ALLENTOWN      CLOUDY    75  67  76 CALM      30.04R
SCRANTON       CLOUDY    72  67  84 CALM      30.06R
$$

CTZ002-004>006-009-010-012-RIZ004-006-007-MAZ004-011-015-271500-
SOUTHERN NEW ENGLAND
 IN CT

CITY           SKY/WX    TMP DP  RH WIND       PRES   REMARKS
BRADLEY INTL   PTSUNNY   76  66  71 SW7       30.03R
HARTFORD       CLOUDY    76  67  73 S3        30.02S
DANBURY        PTSUNNY   75  65  70 W8        30.06S
WTRBRY/OXFORD  CLOUDY    73  64  73 S6        30.07R
BRIDGEPORT     CLOUDY    72  68  87 SW5       30.03S
MERIDEN        CLOUDY    74  67  78 S5        30.03S
NEW HAVEN      CLOUDY    71  69  93 CALM      30.03F
CHESTER        LGT RAIN  70  68  94 SW5       30.06S
GROTON         LGT RAIN  71  68  90 SW8       30.05R
WILLIMANTIC    PTSUNNY   76  66  71 S7        30.04S

 IN RI

CITY           SKY/WX    TMP DP  RH WIND       PRES   REMARKS
PROVIDENCE     TSTM      73  69  87 S12       30.05R
BLOCK ISLAND   CLOUDY    73  72  94 SW9       30.06R
WESTERLY       TSTM      72  69  90 NW3       30.06R VSB 1/4

 IN MA

CITY           SKY/WX    TMP DP  RH WIND       PRES   REMARKS
BOSTON         PTSUNNY   78  66  66 SW6       30.02R
WORCESTER      PTSUNNY   72  65  78 SW8       30.05S
WESTFIELD      PTSUNNY   72  66  81 S5        30.03S
PROVINCETOWN   PTSUNNY   75  64  69 SW8       30.05R
NANTUCKET      CLOUDY    73  68  84 S10       30.06S
$$

ANZ330-335-338-340-345-350-353-355-271500-
COASTAL MARINE OBSERVATIONS


STATION/POSITION TIME  SKY/WX   TEMP    WIND        PRES    VSBY  WAVE
                                AIR SEA DIR/SP/G                  HT/PER
                 (UTC)          (F)     (DEG/KT/KT) (MB)    (MI)  (FT/S)
NY HARB ENTRANCE 1350            73 74  230/  6/  6 1016.9          2/11
4S FIRE IS       NOT AVBL
20S FIRE ISLAND  1350            73 73     CALM     1017.0          2/11
GREAT SOUTH BAY  1330            76 78  240/  6/  8   N/A
23SW MTP         1350            74 73  230/  6/  8 1017.2          2/ 5
HUDSON CANYON    NOT AVBL
KINGS POINT      1300            75 69  200/  5/  5 1016.1
CENTRAL LI SOUND NOT AVBL
EASTERN LI SOUND 1300            70 68  300/  6/  8   N/A
ROBBINS REEF     1300            74     200/  1/  2 1015.6
$$


>>>>>>>>>>>>>>>>>>>>>>>>>>>> KEY <<<<<<<<<<<<<<<<<<<<<<<<<<<
>                                                          <
>     SKY/WX - SKY CONDITION/PRESENT WEATHER               <
>     TMP    - TEMPERATURE IN FAHRENHEIT                   <
>     DP     - DEWPOINT IN FAHRENHEIT                      <
>     RH     - RELATIVE HUMIDITY IN PERCENT                <
>     WIND   - DIRECTION AND SPEED IN MPH                  <
>     PRES   - MEAN SEA LEVEL PRESSURE IN INCHES OF HG     <
>     WCI    - WIND CHILL INDEX                            <
>     VSB    - VISIBILITY IN MILES                         <
>     HX     - HEAT INDEX                                  <
>     TC     - TEMPERATURE IN CELSIUS                      <
>     VRB    - VARIABLE WIND DIRECTION                     <
>                                                          <
>>>>>>>>>>>>>>>>>>>>>>>>>>>> KEY <<<<<<<<<<<<<<<<<<<<<<<<<<<





USA.gov is the U.S. government's official web portal to all federal, state and local government web resources and services.